Time,TemperatureF,DewpointF,PressureIn,WindDirection,WindDirectionDegrees,WindSpeedMPH,WindSpeedGustMPH,Humidity,HourlyPrecipIn,Conditions,Clouds,dailyrainin,SoftwareType,DateUTC
2013-10-25 00:11:00,39.0,31.0,30.14,ENE,77,0.0,0.0,73,0.00,,,0.00,,2013-10-25 04:11:00,
2013-10-25 00:14:00,37.0,33.0,29.85,North,0,0.0,0.0,86,0.00,,,0.12,,2013-10-25 04:14:00,
2013-10-25 00:24:00,37.0,32.0,29.86,North,0,0.0,0.0,81,0.00,,,0.12,,2013-10-25 04:24:00,
2013-10-25 00:44:00,39.0,31.0,30.14,ENE,77,0.0,0.0,73,0.00,,,0.00,,2013-10-25 04:44:00,
2013-10-25 00:54:00,39.0,31.0,30.14,ENE,77,0.0,0.0,73,0.00,,,0.00,,2013-10-25 04:54:00,
2013-10-25 01:03:00,39.0,31.0,30.14,ENE,77,0.0,0.0,73,0.00,,,0.00,,2013-10-25 05:03:00,
2013-10-25 08:51:00,37.0,28.0,29.99,North,0,0.0,0.0,69,0.00,,,0.13,,2013-10-25 12:51:00,
2013-10-25 09:11:00,37.0,28.0,29.99,North,0,0.0,0.0,69,0.00,,,0.13,,2013-10-25 13:11:00,
2013-10-25 09:21:00,37.0,27.0,30.02,North,0,0.0,0.0,66,0.00,,,0.13,,2013-10-25 13:21:00,
2013-10-25 15:22:00,42.0,24.0,30.05,North,0,0.0,0.0,48,0.00,,,0.11,,2013-10-25 19:22:00,
2013-10-25 15:42:00,42.0,24.0,30.05,North,0,0.0,0.0,48,0.00,,,0.11,,2013-10-25 19:42:00,
2013-10-25 15:52:00,42.0,24.0,30.05,North,0,0.0,0.0,48,0.00,,,0.11,,2013-10-25 19:52:00,
2013-10-25 16:12:00,42.0,24.0,30.05,North,0,0.0,0.0,48,0.00,,,0.11,,2013-10-25 20:12:00,
2013-10-25 16:22:00,42.0,24.0,30.05,North,0,0.0,0.0,48,0.00,,,0.09,,2013-10-25 20:22:00,
2013-10-25 16:42:00,42.0,24.0,30.05,North,0,0.0,0.0,48,0.00,,,0.09,,2013-10-25 20:42:00,
2013-10-25 16:52:00,42.0,24.0,30.05,North,0,0.0,0.0,48,0.00,,,0.09,,2013-10-25 20:52:00,
2013-10-25 17:11:00,42.0,24.0,30.05,North,0,0.0,0.0,48,0.00,,,0.09,,2013-10-25 21:11:00,
2013-10-25 17:22:00,41.0,26.0,30.05,North,0,0.0,0.0,54,0.00,,,0.07,,2013-10-25 21:22:00,
2013-10-25 17:43:00,41.0,26.0,30.05,North,0,0.0,0.0,54,0.00,,,0.07,,2013-10-25 21:43:00,
2013-10-25 17:54:00,41.0,26.0,30.05,North,0,0.0,0.0,54,0.00,,,0.07,,2013-10-25 21:54:00,
2013-10-25 18:13:00,41.0,26.0,30.05,North,0,0.0,0.0,54,0.00,,,0.07,,2013-10-25 22:13:00,
2013-10-25 18:24:00,41.0,25.0,30.07,North,0,0.0,0.0,52,0.00,,,0.07,,2013-10-25 22:24:00,
2013-10-25 18:42:00,41.0,25.0,30.07,North,0,0.0,0.0,52,0.00,,,0.06,,2013-10-25 22:42:00,
2013-10-25 18:53:00,41.0,25.0,30.07,North,0,0.0,0.0,52,0.00,,,0.06,,2013-10-25 22:53:00,
2013-10-25 19:12:00,41.0,25.0,30.07,North,0,0.0,0.0,52,0.00,,,0.06,,2013-10-25 23:12:00,
2013-10-25 19:23:00,40.0,25.0,30.09,North,0,0.0,0.0,54,0.00,,,0.05,,2013-10-25 23:23:00,
2013-10-25 19:42:00,40.0,25.0,30.09,North,0,0.0,0.0,54,0.00,,,0.05,,2013-10-25 23:42:00,
2013-10-25 19:52:00,40.0,25.0,30.09,North,0,0.0,0.0,54,0.00,,,0.05,,2013-10-25 23:52:00,
2013-10-25 20:11:00,40.0,25.0,30.09,North,0,0.0,0.0,54,0.00,,,0.05,,2013-10-26 00:11:00,
2013-10-25 20:22:00,39.0,25.0,30.09,North,0,0.0,0.0,56,0.00,,,0.05,,2013-10-26 00:22:00,
2013-10-25 20:42:00,39.0,25.0,30.09,North,0,0.0,0.0,56,0.00,,,0.05,,2013-10-26 00:42:00,
2013-10-25 20:52:00,39.0,25.0,30.09,North,0,0.0,0.0,56,0.00,,,0.05,,2013-10-26 00:52:00,
2013-10-25 21:12:00,39.0,25.0,30.09,North,0,0.0,0.0,56,0.00,,,0.05,,2013-10-26 01:12:00,
2013-10-25 21:22:00,39.0,25.0,30.09,North,0,0.0,0.0,56,0.00,,,0.04,,2013-10-26 01:22:00,
2013-10-25 21:42:00,38.0,26.0,30.10,North,0,0.0,0.0,61,0.00,,,0.04,,2013-10-26 01:42:00,
2013-10-25 21:52:00,38.0,26.0,30.10,North,0,0.0,0.0,61,0.00,,,0.04,,2013-10-26 01:52:00,
2013-10-25 22:12:00,38.0,26.0,30.10,North,0,0.0,0.0,61,0.00,,,0.04,,2013-10-26 02:12:00,
2013-10-25 22:22:00,38.0,26.0,30.10,North,0,0.0,0.0,61,0.00,,,0.03,,2013-10-26 02:22:00,
2013-10-25 22:43:00,37.0,25.0,30.11,North,0,0.0,0.0,61,0.00,,,0.03,,2013-10-26 02:43:00,
2013-10-25 22:52:00,37.0,25.0,30.11,North,0,0.0,0.0,61,0.00,,,0.03,,2013-10-26 02:52:00,
2013-10-25 23:12:00,37.0,25.0,30.11,North,0,0.0,0.0,61,0.00,,,0.03,,2013-10-26 03:12:00,
2013-10-25 23:22:00,37.0,25.0,30.11,North,0,0.0,0.0,61,0.00,,,0.03,,2013-10-26 03:22:00,
2013-10-25 23:44:00,37.0,24.0,30.11,North,0,0.0,0.0,59,0.00,,,0.03,,2013-10-26 03:44:00,
2013-10-25 23:54:00,37.0,24.0,30.11,North,0,0.0,0.0,59,0.00,,,0.03,,2013-10-26 03:54:00,